SR1NRS Weather Reports


time (UTC)temp
F
wind
direction
speed
knots
gust
knots
rain 1hr
in
rain 24hr
in
rain mn
in
humidity
%
barometer
mb
20260902060625 58 211 1.7 1.7 0.00 0.00 0.00 82 1018.0
20260902060124 57 218 1.7 2.6 0.00 0.00 0.00 83 1018.0
20260902055624 57 232 4.3 5.2 0.00 0.00 0.00 83 1018.0
20260902055125 57 247 3.5 5.2 0.00 0.00 0.00 83 1018.0
20260902054624 57 234 3.5 4.3 0.00 0.00 0.00 83 1018.0
20260902054123 57 246 0.9 1.7 0.00 0.00 0.00 83 1018.0
20260902053625 57 221 1.7 1.7 0.00 0.00 0.00 83 1018.0
20260902053123 57 219 0.0 0.9 0.00 0.00 0.00 83 1018.0
20260902052623 57 211 1.7 1.7 0.00 0.00 0.00 83 1017.6
20260902052124 57 247 2.6 2.6 0.00 0.00 0.00 83 1017.6
20260902051624 57 196 0.9 0.9 0.00 0.00 0.00 82 1017.6
20260902051124 57 253 1.7 1.7 0.00 0.00 0.00 83 1018.0
20260902050623 57 230 1.7 1.7 0.00 0.00 0.00 83 1017.6
20260902050123 56 227 0.9 1.7 0.00 0.00 0.00 84 1017.6
20260902045623 56 226 2.6 2.6 0.00 0.00 0.00 84 1017.6
20260902045123 56 238 1.7 1.7 0.00 0.00 0.00 84 1017.3
20260902044623 56 220 0.9 1.7 0.00 0.00 0.00 84 1017.6
20260902044124 56 240 0.9 1.7 0.00 0.00 0.00 84 1017.6
20260902043625 56 243 2.6 4.3 0.00 0.00 0.00 84 1017.3
20260902043123 56 198 1.7 2.6 0.00 0.00 0.00 84 1017.3
20260902042623 56 239 2.6 2.6 0.00 0.00 0.00 84 1017.3
20260902042123 56 219 0.9 0.9 0.00 0.00 0.00 83 1017.3
20260902041626 56 238 1.7 1.7 0.00 0.00 0.00 83 1017.3
20260902041124 56 227 1.7 2.6 0.00 0.00 0.00 83 1017.3
20260902040623 56 234 3.5 4.3 0.00 0.00 0.00 83 1017.3
20260902040124 56 221 0.9 1.7 0.00 0.00 0.00 83 1017.3
20260902035624 56 257 2.6 4.3 0.00 0.00 0.00 83 1017.3
20260902035123 56 212 2.6 2.6 0.00 0.00 0.00 83 1017.3
20260902034623 56 230 2.6 4.3 0.00 0.00 0.00 83 1017.3
20260902034123 56 234 1.7 2.6 0.00 0.00 0.00 83 1016.9
20260902033625 56 223 2.6 4.3 0.00 0.00 0.00 83 1016.9
20260902033123 56 239 3.5 4.3 0.00 0.00 0.00 83 1016.9
20260902032624 57 233 1.7 2.6 0.00 0.00 0.00 82 1016.9
20260902032123 57 215 1.7 1.7 0.00 0.00 0.00 82 1017.3
20260902031625 57 227 3.5 4.3 0.00 0.00 0.00 82 1016.9
20260902031123 57 209 0.0 0.9 0.00 0.00 0.00 82 1016.9
20260902030624 57 241 1.7 1.7 0.00 0.00 0.00 82 1017.3
20260902030123 57 221 0.9 0.9 0.00 0.00 0.00 82 1017.3
20260902025623 57 225 1.7 1.7 0.00 0.00 0.00 82 1017.3
20260902025123 57 227 2.6 2.6 0.00 0.00 0.00 82 1017.3
20260902024624 57 282 1.7 4.3 0.00 0.00 0.00 82 1017.3
20260902024123 57 221 3.5 5.2 0.00 0.00 0.00 82 1017.3
20260902023623 57 211 3.5 4.3 0.00 0.00 0.00 82 1016.9
20260902023125 57 192 3.5 5.2 0.00 0.00 0.00 82 1017.3
20260902022624 57 230 1.7 2.6 0.00 0.00 0.00 82 1017.3
20260902022123 57 237 2.6 4.3 0.00 0.00 0.00 82 1017.3
20260902021624 57 241 3.5 4.3 0.00 0.00 0.00 82 1016.9
20260902021125 57 211 3.5 4.3 0.00 0.00 0.00 81 1017.3
20260902020624 57 209 1.7 1.7 0.00 0.00 0.00 81 1016.9
20260902020123 57 224 1.7 1.7 0.00 0.00 0.00 81 1017.3
20260902015623 57 225 0.9 1.7 0.00 0.00 0.00 81 1016.9
20260902015125 57 248 3.5 4.3 0.00 0.00 0.00 81 1016.9
20260902014623 57 207 0.0 0.9 0.00 0.00 0.00 80 1016.6
20260902014123 57 225 1.7 1.7 0.00 0.00 0.00 80 1016.6
20260902013623 57 201 1.7 1.7 0.00 0.00 0.00 80 1016.9
20260902013123 57 206 0.9 1.7 0.00 0.00 0.00 80 1016.9
20260902012625 57 200 1.7 2.6 0.00 0.00 0.00 80 1016.9
20260902012123 57 220 2.6 2.6 0.00 0.00 0.00 80 1016.9
20260902011626 57 247 3.5 4.3 0.00 0.00 0.00 80 1016.9
20260902011123 57 228 2.6 2.6 0.00 0.00 0.00 80 1016.6
20260902010623 58 258 2.6 2.6 0.00 0.00 0.00 80 1016.9
20260902010124 58 222 1.7 2.6 0.00 0.00 0.00 79 1016.6
20260902005624 58 234 3.5 4.3 0.00 0.00 0.00 79 1016.6
20260902005123 58 214 2.6 2.6 0.00 0.00 0.00 79 1016.9
20260902004624 58 231 1.7 1.7 0.00 0.00 0.00 79 1016.9
20260902004125 58 226 1.7 2.6 0.00 0.00 0.00 79 1016.6
20260902003623 58 271 1.7 2.6 0.00 0.00 0.00 78 1016.9
20260902003125 58 222 0.9 1.7 0.00 0.00 0.00 78 1016.9
20260902002626 59 267 2.6 2.6 0.00 0.00 0.00 78 1016.9
20260902002123 59 266 3.5 4.3 0.00 0.00 0.00 78 1016.9
20260902001623 59 267 2.6 2.6 0.00 0.00 0.00 78 1016.9
20260902001124 59 246 2.6 2.6 0.00 0.00 0.00 77 1016.6
20260902000623 59 235 2.6 2.6 0.00 0.00 0.00 77 1016.9
20260902000123 59 211 1.7 2.6 0.00 0.00 0.00 77 1016.9
20260901235623 59 216 0.9 1.7 0.00 0.00 0.00 77 1016.9
20260901235123 60 216 3.5 4.3 0.00 0.00 0.00 76 1016.9
20260901234623 60 242 1.7 2.6 0.00 0.00 0.00 76 1016.9
20260901234125 60 218 0.9 0.9 0.00 0.00 0.00 76 1016.9
20260901233623 60 216 0.9 0.9 0.00 0.00 0.00 76 1016.9
20260901233124 60 274 3.5 4.3 0.00 0.00 0.00 76 1016.9
20260901232623 60 212 3.5 4.3 0.00 0.00 0.00 76 1016.9
20260901232123 60 272 1.7 1.7 0.00 0.00 0.00 76 1016.6
20260901231623 61 250 2.6 2.6 0.00 0.00 0.00 75 1016.9
20260901231124 61 221 2.6 2.6 0.00 0.00 0.00 76 1016.9
20260901230623 61 278 2.6 5.2 0.00 0.00 0.00 76 1016.9
20260901230122 61 233 1.7 1.7 0.00 0.00 0.00 76 1016.9
20260901225623 61 280 2.6 4.3 0.00 0.00 0.00 77 1016.9
20260901225124 61 243 1.7 1.7 0.00 0.00 0.00 77 1016.6
20260901224623 61 216 0.0 0.0 0.00 0.00 0.00 77 1016.9
20260901224123 61 221 0.9 0.9 0.00 0.00 0.00 77 1016.9
20260901223623 61 242 3.5 4.3 0.00 0.00 0.00 77 1016.9
20260901223123 61 220 0.9 1.7 0.00 0.00 0.00 77 1016.9
20260901222624 61 219 2.6 2.6 0.00 0.00 0.00 77 1016.9
20260901222123 61 207 2.6 2.6 0.00 0.00 0.00 77 1016.9
20260901221623 61 336 1.7 1.7 0.00 0.00 0.00 77 1016.9
20260901221124 60 232 4.3 5.2 0.00 0.00 0.00 77 1016.6
20260901220623 60 222 0.0 0.0 0.00 0.00 0.00 78 1016.6
20260901220124 60 256 2.6 2.6 0.00 0.00 0.00 79 1016.6
20260901215623 60 238 2.6 2.6 0.00 0.00 0.10 79 1016.6
20260901215126 60 209 0.0 0.9 0.00 0.00 0.10 79 1016.6
20260901214623 60 198 0.9 1.7 0.00 0.00 0.10 79 1016.3
20260901214123 60 243 2.6 2.6 0.00 0.00 0.10 79 1016.3
20260901213623 60 231 1.7 1.7 0.00 0.00 0.10 79 1016.3
20260901213123 60 229 1.7 1.7 0.00 0.00 0.10 78 1016.3
20260901212623 61 218 0.9 0.9 0.00 0.00 0.10 78 1016.3
20260901212123 61 204 1.7 1.7 0.00 0.00 0.10 77 1016.6
20260901211624 61 275 3.5 4.3 0.00 0.00 0.10 77 1016.6
20260901211123 61 212 2.6 2.6 0.00 0.00 0.10 77 1016.6
20260901210624 61 207 0.9 0.9 0.00 0.00 0.10 77 1016.6
20260901210123 61 221 1.7 1.7 0.00 0.00 0.10 77 1016.6
20260901205623 61 232 0.0 0.9 0.00 0.00 0.10 77 1016.3
20260901205123 61 237 2.6 2.6 0.00 0.00 0.10 77 1016.3
20260901204624 61 238 1.7 2.6 0.00 0.00 0.10 78 1016.3
20260901204123 61 239 0.9 1.7 0.00 0.00 0.10 77 1016.6
20260901203623 61 204 1.7 2.6 0.00 0.00 0.10 77 1016.6
20260901203125 61 248 1.7 1.7 0.00 0.00 0.10 77 1016.6
20260901202623 61 223 1.7 1.7 0.00 0.00 0.10 78 1016.3
20260901202124 61 221 1.7 1.7 0.00 0.00 0.10 78 1016.6
20260901201623 61 279 2.6 2.6 0.00 0.00 0.10 78 1016.6
20260901201123 61 183 0.9 0.9 0.00 0.00 0.10 77 1016.3
20260901200623 61 239 0.9 0.9 0.00 0.00 0.10 77 1016.3
20260901200124 61 257 1.7 1.7 0.00 0.00 0.10 77 1016.3
20260901195624 61 246 0.0 0.9 0.00 0.00 0.10 78 1016.3
20260901195123 61 232 0.0 0.0 0.00 0.00 0.10 77 1016.3
20260901194623 61 217 0.9 0.9 0.00 0.00 0.10 77 1016.3
20260901194123 61 227 0.9 0.9 0.00 0.00 0.10 77 1016.3
20260901193623 61 218 0.9 1.7 0.00 0.00 0.10 77 1016.3
20260901193124 61 220 0.9 1.7 0.00 0.00 0.10 77 1016.3
20260901192623 61 210 0.9 1.7 0.00 0.00 0.10 78 1016.3
20260901192123 61 217 0.0 0.0 0.00 0.00 0.10 79 1016.3
20260901191623 61 226 0.9 0.9 0.00 0.00 0.10 79 1016.3
20260901191124 61 216 0.9 0.9 0.00 0.00 0.10 79 1016.3
20260901190623 61 229 1.7 1.7 0.00 0.00 0.10 79 1016.3
20260901190123 61 232 1.7 1.7 0.00 0.00 0.10 80 1015.9
20260901185623 61 215 0.9 0.9 0.00 0.00 0.10 80 1015.9
20260901185125 61 226 2.6 2.6 0.00 0.00 0.10 80 1015.9
20260901184623 61 204 0.9 0.9 0.00 0.00 0.10 80 1015.9
20260901184124 61 214 0.9 0.9 0.00 0.00 0.10 80 1015.9
20260901183623 61 205 0.0 0.0 0.00 0.00 0.10 80 1015.9
20260901183124 61 215 0.9 1.7 0.00 0.00 0.10 80 1015.6
20260901182623 61 212 0.0 0.0 0.00 0.00 0.10 80 1015.6
20260901182124 61 202 0.0 0.9 0.00 0.00 0.10 80 1015.6
20260901181623 61 219 0.9 0.9 0.00 0.00 0.10 80 1015.9
20260901181125 61 223 0.9 0.9 0.00 0.00 0.10 80 1015.6
20260901180625 61 219 0.9 0.9 0.00 0.00 0.10 80 1015.6
20260901180125 61 233 0.0 0.9 0.00 0.00 0.10 80 1015.6
20260901175623 61 216 0.0 0.0 0.00 0.00 0.10 80 1015.6
20260901175123 61 235 0.9 0.9 0.00 0.00 0.10 80 1015.6
20260901174623 61 274 1.7 2.6 0.00 0.00 0.10 80 1015.6
20260901174123 61 264 2.6 4.3 0.00 0.00 0.10 80 1015.6
20260901173628 61 219 0.9 0.9 0.00 0.00 0.10 80 1015.2
20260901173123 61 244 0.9 1.7 0.00 0.00 0.10 79 1015.2
20260901172623 61 253 1.7 1.7 0.00 0.00 0.10 79 1015.2
20260901172123 61 208 0.9 1.7 0.00 0.00 0.10 79 1015.6
20260901171625 61 157 0.9 0.9 0.07 0.00 0.10 79 1015.2
20260901171124 61 212 3.5 6.1 0.54 0.00 0.10 78 1015.6
20260901170625 63 282 5.2 8.7 0.47 0.00 0.09 78 1015.6
20260901170124 65 349 6.1 7.8 0.05 0.00 0.02 73 1015.6
20260901165623 65 346 2.6 5.2 0.00 0.00 0.01 69 1015.2
20260901165123 66 328 4.3 7.8 0.00 0.00 0.01 67 1015.2
20260901164624 67 198 3.5 5.2 0.00 0.00 0.01 66 1015.2
20260901164123 69 354 6.1 13.0 0.00 0.00 0.01 68 1015.2
20260901163624 69 280 0.9 0.9 0.00 0.00 0.01 66 1014.9
20260901163123 70 240 0.9 0.9 0.00 0.00 0.01 66 1014.9
20260901162624 71 329 0.0 0.9 0.00 0.00 0.01 64 1014.9
20260901162133 71 209 1.7 1.7 0.00 0.00 0.01 56 1014.6
20260901161623 71 268 0.9 1.7 0.00 0.00 0.01 55 1014.9
20260901161123 71 289 2.6 2.6 0.00 0.00 0.01 55 1014.9
20260901160623 72 294 2.6 4.3 0.00 0.00 0.01 54 1014.9
20260901160124 71 234 3.5 5.2 0.00 0.00 0.01 55 1014.6
20260901155625 72 268 10.4 11.3 0.00 0.00 0.01 55 1014.6
20260901155123 71 229 2.6 4.3 0.00 0.00 0.01 56 1014.2
20260901154623 71 227 2.6 2.6 0.00 0.00 0.01 56 1014.2
20260901154124 71 254 7.8 7.8 0.00 0.00 0.01 56 1014.6
20260901153623 71 234 6.1 7.8 0.00 0.00 0.01 55 1014.2
20260901153124 71 225 6.1 9.6 0.00 0.00 0.01 55 1014.6
20260901152623 71 249 5.2 6.1 0.00 0.00 0.01 54 1014.6
20260901152123 71 234 4.3 7.0 0.00 0.00 0.01 55 1014.2
20260901151624 71 269 4.3 6.1 0.00 0.00 0.01 54 1014.6
20260901151127 71 254 8.7 12.2 0.00 0.00 0.01 54 1014.2
20260901150624 71 241 4.3 7.0 0.00 0.00 0.01 55 1014.2
20260901150124 72 236 4.3 5.2 0.00 0.00 0.01 55 1014.2
20260901145623 72 256 6.1 7.8 0.00 0.00 0.01 54 1014.6
20260901145124 71 238 4.3 5.2 0.00 0.00 0.01 53 1014.2
20260901144623 71 230 0.9 1.7 0.00 0.00 0.01 53 1014.2
20260901144124 72 227 1.7 2.6 0.00 0.00 0.01 53 1014.2
20260901143623 72 309 3.5 5.2 0.00 0.00 0.01 53 1014.2
20260901143123 72 240 4.3 7.0 0.00 0.00 0.01 52 1014.2
20260901142623 73 285 3.5 6.1 0.00 0.00 0.01 49 1014.2
20260901142123 73 218 4.3 7.8 0.00 0.00 0.01 52 1014.2
20260901141623 74 183 3.5 5.2 0.00 0.00 0.01 51 1014.2
20260901141126 74 243 0.9 0.9 0.00 0.00 0.01 55 1014.2
20260901140623 74 211 0.9 1.7 0.00 0.00 0.01 55 1014.2
20260901140123 73 272 3.5 4.3 0.00 0.00 0.01 56 1014.2
20260901135624 73 268 2.6 2.6 0.00 0.00 0.01 56 1014.2
20260901135125 75 325 4.3 5.2 0.00 0.00 0.01 55 1014.2
20260901134623 72 230 2.6 5.2 0.00 0.00 0.01 55 1014.2
20260901134124 71 239 6.1 8.7 0.00 0.00 0.01 59 1014.2
20260901133623 71 258 11.3 14.8 0.00 0.00 0.01 59 1014.2
20260901133123 71 272 4.3 5.2 0.00 0.00 0.01 58 1014.2
20260901132624 71 231 6.1 8.7 0.00 0.00 0.01 59 1014.2
20260901132127 70 279 6.1 7.0 0.00 0.00 0.01 62 1014.2
20260901131624 71 217 4.3 6.1 0.00 0.00 0.01 62 1014.2
20260901131124 69 217 5.2 7.0 0.00 0.00 0.01 64 1014.6
20260901130623 70 242 6.1 7.8 0.00 0.00 0.01 67 1014.2
20260901130123 70 205 2.6 4.3 0.00 0.00 0.01 66 1014.2
20260901125623 68 236 4.3 6.1 0.00 0.00 0.01 69 1014.2
20260901125125 69 266 4.3 5.2 0.00 0.00 0.01 69 1014.6
20260901124624 68 213 1.7 2.6 0.00 0.00 0.01 69 1014.2
20260901124124 68 237 3.5 6.1 0.00 0.00 0.01 70 1014.6
20260901123624 68 259 6.1 8.7 0.00 0.00 0.01 70 1014.6
20260901123124 68 228 6.1 7.0 0.00 0.00 0.01 69 1014.2
20260901122624 67 296 2.6 4.3 0.00 0.00 0.01 69 1014.2
20260901122123 67 207 3.5 7.0 0.00 0.00 0.01 68 1014.6
20260901121623 67 286 4.3 7.0 0.00 0.00 0.01 67 1014.2
20260901121124 68 261 2.6 2.6 0.00 0.00 0.01 65 1014.2
20260901120624 66 308 7.8 11.3 0.00 0.00 0.01 67 1014.6
20260901120125 67 206 3.5 5.2 0.00 0.00 0.01 67 1014.6
20260901115623 67 230 6.1 8.7 0.00 0.00 0.01 67 1014.2
20260901115125 67 191 1.7 2.6 0.00 0.00 0.01 69 1014.6
20260901114624 67 247 7.0 9.6 0.00 0.00 0.01 69 1014.2
20260901114123 66 254 6.1 8.7 0.00 0.00 0.01 71 1014.6
20260901113623 67 152 8.7 11.3 0.00 0.00 0.01 72 1014.2
20260901113124 68 249 9.6 14.8 0.00 0.00 0.01 70 1014.2
20260901112623 68 257 10.4 13.0 0.00 0.00 0.01 69 1014.2
20260901112125 68 261 7.8 12.2 0.00 0.00 0.01 70 1013.9
20260901111623 68 203 6.1 7.8 0.00 0.00 0.01 68 1014.2
20260901111123 68 238 4.3 5.2 0.00 0.00 0.01 68 1014.2
20260901110623 67 268 5.2 7.0 0.00 0.00 0.01 70 1014.2
20260901110124 68 269 5.2 7.8 0.00 0.00 0.01 67 1014.2
20260901105623 67 250 3.5 5.2 0.00 0.00 0.01 69 1014.2
20260901105124 67 250 9.6 13.0 0.00 0.00 0.01 69 1014.2
20260901104623 68 269 6.1 7.0 0.00 0.00 0.01 68 1013.9
20260901104123 68 276 10.4 13.0 0.00 0.00 0.01 67 1013.9
20260901103624 68 251 7.8 11.3 0.00 0.00 0.01 65 1014.2
20260901103123 69 240 2.6 4.3 0.00 0.00 0.01 62 1013.9
20260901102623 68 158 1.7 2.6 0.00 0.00 0.01 65 1014.2
20260901102123 68 261 6.1 7.0 0.00 0.00 0.01 68 1013.9
20260901101624 68 224 4.3 7.0 0.00 0.00 0.01 68 1013.6
20260901101123 67 255 3.5 6.1 0.00 0.00 0.01 68 1013.9
20260901100623 67 231 9.6 12.2 0.00 0.00 0.01 69 1013.6
20260901100123 66 214 1.7 1.7 0.00 0.00 0.01 70 1013.6
20260901095623 66 242 9.6 12.2 0.00 0.00 0.01 71 1013.9
20260901095123 67 348 6.1 7.8 0.00 0.00 0.01 70 1013.6
20260901094624 66 251 7.8 9.6 0.00 0.00 0.01 72 1013.6
20260901094124 66 277 5.2 7.0 0.00 0.00 0.01 72 1013.9
20260901093623 66 255 4.3 6.1 0.00 0.00 0.01 72 1013.6
20260901093123 65 232 4.3 6.1 0.00 0.00 0.01 71 1013.6
20260901092624 66 269 6.1 8.7 0.00 0.00 0.01 71 1013.6
20260901092123 67 230 2.6 4.3 0.00 0.00 0.01 70 1013.6
20260901091624 66 251 7.8 9.6 0.00 0.00 0.01 71 1013.6
20260901091123 66 277 4.3 7.8 0.00 0.00 0.01 71 1013.6
20260901090623 66 260 4.3 6.1 0.00 0.00 0.01 72 1013.6
20260901090124 66 220 5.2 6.1 0.00 0.00 0.01 73 1013.6
20260901085623 65 222 3.5 4.3 0.00 0.00 0.01 74 1013.6
20260901085123 65 217 4.3 6.1 0.00 0.00 0.01 74 1013.6
20260901084626 64 162 1.7 4.3 0.00 0.00 0.01 74 1013.6
20260901084123 64 279 2.6 4.3 0.00 0.00 0.01 75 1013.6
20260901083625 64 247 3.5 5.2 0.00 0.00 0.01 76 1013.6
20260901083123 63 251 3.5 5.2 0.00 0.00 0.01 78 1013.6
20260901082623 63 236 0.9 0.9 0.00 0.00 0.01 79 1013.6
20260901082123 63 221 2.6 4.3 0.00 0.00 0.01 79 1013.6
20260901081623 62 302 3.5 4.3 0.00 0.00 0.01 79 1013.6
20260901081123 62 234 6.1 7.0 0.00 0.00 0.01 80 1013.2
20260901080623 62 190 4.3 7.0 0.00 0.00 0.01 80 1013.2
20260901080123 61 226 4.3 6.1 0.00 0.00 0.01 81 1013.6
20260901075623 61 221 4.3 6.1 0.00 0.00 0.01 81 1013.2
20260901075123 61 272 7.8 11.3 0.00 0.00 0.01 81 1013.2
20260901074623 61 234 7.0 7.8 0.00 0.00 0.01 81 1013.2
20260901074124 61 223 2.6 4.3 0.00 0.00 0.01 81 1012.9
20260901073624 61 233 4.3 5.2 0.00 0.00 0.01 81 1012.9
20260901073123 61 184 3.5 4.3 0.00 0.00 0.01 81 1012.9
20260901072624 61 258 4.3 5.2 0.00 0.00 0.01 81 1012.9
20260901072123 61 215 2.6 4.3 0.00 0.00 0.01 81 1012.9
20260901071623 61 241 2.6 4.3 0.00 0.00 0.01 81 1013.2
20260901071125 60 221 4.3 5.2 0.00 0.00 0.01 81 1012.9
20260901070623 61 274 4.3 5.2 0.00 0.00 0.01 81 1012.9
20260901070123 60 243 2.6 2.6 0.00 0.00 0.01 82 1012.9
20260901065624 60 240 4.3 5.2 0.00 0.00 0.01 82 1012.9
20260901065123 60 241 3.5 4.3 0.00 0.00 0.01 82 1012.5
20260901064623 60 260 5.2 7.8 0.00 0.00 0.01 82 1012.5
20260901064124 60 265 7.0 7.8 0.00 0.00 0.01 82 1012.5
20260901063623 60 245 4.3 6.1 0.00 0.00 0.01 82 1012.5
20260901063124 60 250 4.3 5.2 0.00 0.00 0.01 82 1012.5
20260901062627 60 238 4.3 6.1 0.00 0.00 0.01 81 1012.5
20260901062127 60 271 6.1 7.8 0.00 0.00 0.01 81 1012.5
20260901061625 60 238 4.3 5.2 0.00 0.00 0.01 82 1012.5
20260901061123 60 240 4.3 6.1 0.00 0.00 0.01 82 1012.2